Regional Weather Roundup
Issued by NWS

Home | Current Version | Previous Version | Graphics & Text | Print | Product List | Glossary On
Versions: 1 2 3 4 5 6 7 8 9 10 11 12 13 14 15 16 17 18 19 20 21 22 23 24 25 26 27 28 29 30 31 32 33 34 35 36 37 38 39 40 41 42 43 44 45 46 47 48 49 50
000
ASUS45 KPSR 222210
RWRAZ

ARIZONA HOURLY REGIONAL WEATHER ROUNDUP
NATIONAL WEATHER SERVICE PHOENIX AZ
300 PM MST SAT JUL 22 2017

NOTE: FAIR INDICATES FEW OR NO CLOUDS BELOW 12,000 FEET WITH NO
SIGNIFICANT WEATHER AND/OR OBSTRUCTIONS TO VISIBILITY.

AZZ001>003-036-222300-
NORTHWEST ARIZONA

CITY           SKY/WX    TMP DP  RH WIND       PRES   REMARKS
BULLHEAD CITY  FAIR     109  54  16 SW6       29.73F HX 108
KINGMAN        FAIR     100  55  22 VRB6      29.98F
$$

AZZ004>008-015-016-018-222300-
NORTH CENTRAL ARIZONA

CITY           SKY/WX    TMP DP  RH WIND       PRES   REMARKS
GRAND CANYON   FAIR      86  48  26 NE15      30.24F
WILLIAMS       FAIR      77  57  50 VRB5      30.24F
PRESCOTT       TSTM      74  62  66 E18G29    30.11S
FLAGSTAFF      FAIR      79  47  32 N15G22    30.26F
PAYSON         FAIR      77  59  53 NW10G18   30.14F
PAGE           FAIR      96  50  20 NE12G21   30.03F
$$

AZZ009>014-017-222300-
NORTHEAST ARIZONA

CITY           SKY/WX    TMP DP  RH WIND       PRES   REMARKS
WINSLOW        FAIR      92  53  26 NW10G17   30.09F
SAINT JOHNS    PTSUNNY   75  59  57 SE18G31   30.15R
WINDOW ROCK    LGT RAIN  66  58  75 NW13        N/A
SHOW LOW       FAIR      64  57  77 W3        30.22F
$$

AZZ540-542>544-546-548-222300-
GREATER PHOENIX AREA

CITY           SKY/WX    TMP DP  RH WIND       PRES   REMARKS
PHOENIX        FAIR     104  59  22 W9G18     29.77F HX 104
BUCKEYE        FAIR     106  55  18 W6        29.77F HX 105
GLENDALE       MOSUNNY  106  57  20 SW10G20   29.78F HX 105
LUKE AFB       FAIR     105  58  21 W12       29.75F HX 105
DEER VALLEY    FAIR     103  59  23 SW13      29.78F HX 103
SCOTTSDALE     FAIR     102  59  24 VRB7      29.81F HX 102
MESA-FALCON    MOSUNNY   99  64  32 W12G17    29.87  HX 101
MESA-GATEWAY     N/A    100  59  25 NW9G16    29.81F HX 100
CHANDLER       SUNNY    104  57  21 NW12      29.79F HX 103
$$

AZZ539-553-222300-
SOUTHWEST MARICOPA COUNTY AND PINAL COUNTY

CITY           SKY/WX    TMP DP  RH WIND       PRES   REMARKS
CASA GRANDE    FAIR     102  61  25 W10G17    29.81F HX 103
GILA BEND      FAIR     105  56  19 SW10G17   29.76F HX 104
$$

AZZ503-504-507>509-222300-
SOUTHEAST ARIZONA

CITY           SKY/WX    TMP DP  RH WIND       PRES   REMARKS
TUCSON         FAIR      95  60  31 N13       29.93F
DAVIS-MONTHAN  FAIR      97  60  29 N10G22    29.92F
RYAN FIELD     SUNNY     97  63  32 NW6       29.92F
NOGALES        TSTM      67  66  97 SE14G20   30.11S VSB 3/4
SIERRA VISTA   PTSUNNY   75  65  70 S9        30.12S
DOUGLAS        FAIR      79  63  57 W9        30.06S
SAFFORD        PTSUNNY   79  66  64 NE21G37   29.92S THUNDER
$$

AZZ532-222300-
SOUTHWEST ARIZONA

CITY           SKY/WX    TMP DP  RH WIND       PRES   REMARKS
YUMA           FAIR     106  62  23 W8        29.74F HX 108
$$

CAZ041-043-047-048-061-525>527-560>570-222300-
SOUTHERN CALIFORNIA

CITY           SKY/WX    TMP DP  RH WIND       PRES   REMARKS
DOWNTOWN L.A.  FAIR      80  65  59 VRB7      29.87F
L.A. AIRPORT   FAIR      75  65  70 W13       29.89F
SAN DIEGO      FAIR      74  62  66 SW7       29.92F
BURBANK        FAIR      86  61  42 S12       29.87F
ONTARIO        FAIR      95  60  31 W14G22    29.86F
RIVERSIDE      FAIR      95  62  33 W14       29.85F
PALM SPRINGS   FAIR     110  50  13 SE9       29.77F HX 107
EL CENTRO NAS  FAIR     108  58  19 N5        29.74F HX 108
IMPERIAL       CLOUDY   109  65  24 SE10      29.71F HX 114
BLYTHE         PTSUNNY  109  60  20 S9G22     29.74F HX 110
NEEDLES        FAIR     113  52  13 W7G20     29.75F HX 110
$$

NVZ020-UTZ003-222300-
SOUTHERN NEVADA-UTAH

CITY           SKY/WX    TMP DP  RH WIND       PRES   REMARKS
LAS VEGAS      FAIR     107  51  15 VRB3      29.85F HX 104
SALT LAKE CITY FAIR      98  45  16 NW6       30.06F
$$

NMZ009-TXZ055-222300-
NEW MEXICO-WEST TEXAS

CITY           SKY/WX    TMP DP  RH WIND       PRES   REMARKS
ALBUQUERQUE    CLOUDY    92  48  22 VRB7      30.06F
EL PASO        PTSUNNY   90  59  35 CALM      29.99F THUNDER
$$


........................KEY........................
SKY/WX - SKY CONDITION/WEATHER
TMP    - TEMPERATURE IN FAHRENHEIT
DP     - DEW POINT IN FAHRENHEIT
RH     - RELATIVE HUMIDITY IN PERCENT
WIND   - DIRECTION AND SPEED IN MILES PER HOUR (MPH)
VRB    - VARIABLE WIND DIRECTION
PRES   - MEAN SEA LEVEL PRESSURE IN INCHES OF MERCURY
         F - FALLING PRESSURE   R - RISING PRESSURE
         S - STEADY PRESSURE
VSB    - VISIBILITY IN MILES
HX     - HEAT INDEX IN FAHRENHEIT
WCI    - WIND CHILL INDEX IN FAHRENHEIT
TC     - TEMPERATURE IN CELSIUS WHICH IS ALSO KNOWN AS
         TEMPERATURE IN CENTIGRADE
AFB    - AIR FORCE BASE
         LUKE AFB IS LUKE AIR FORCE BASE
         DAVIS-MONTHAN IS DAVIS-MONTHAN AIR FORCE BASE
NAS    - NAVAL AIR STATION
         EL CENTRO NAS IS EL CENTRO NAVAL AIR STATION
N/A    - NOT AVAILABLE




USA.gov is the U.S. government's official web portal to all federal, state and local government web resources and services.